Year,Month,Day,Hour,Minute,Value (Times are PST for temperature in C)
2014,06,25,00,00,15.00
2014,06,25,00,01,15.00
2014,06,25,00,02,15.00
2014,06,25,00,03,15.00
2014,06,25,00,04,15.00
2014,06,25,00,05,15.00
2014,06,25,00,06,15.00
2014,06,25,00,07,15.00
2014,06,25,00,08,15.00
2014,06,25,00,09,15.00
2014,06,25,00,10,15.00
2014,06,25,00,11,15.00
2014,06,25,00,12,15.00
2014,06,25,00,13,15.10
2014,06,25,00,14,15.00
2014,06,25,00,15,15.10
2014,06,25,00,16,15.10
2014,06,25,00,17,15.10
2014,06,25,00,18,15.10
2014,06,25,00,19,15.10
2014,06,25,00,20,15.10
2014,06,25,00,21,15.10
2014,06,25,00,22,15.10
2014,06,25,00,23,15.10
2014,06,25,00,24,15.10
2014,06,25,00,25,15.10
2014,06,25,00,26,15.10
2014,06,25,00,27,15.10
2014,06,25,00,28,15.10
2014,06,25,00,29,15.10
2014,06,25,00,30,15.10
2014,06,25,00,31,15.00
2014,06,25,00,32,15.00
2014,06,25,00,33,15.00
2014,06,25,00,34,15.00
2014,06,25,00,35,15.00
2014,06,25,00,36,15.00
2014,06,25,00,37,15.00
2014,06,25,00,38,15.00
2014,06,25,00,39,15.00
2014,06,25,00,40,14.90
2014,06,25,00,41,14.90
2014,06,25,00,42,14.90
2014,06,25,00,43,14.90
2014,06,25,00,44,14.90
2014,06,25,00,45,14.90
2014,06,25,00,46,14.90
2014,06,25,00,47,14.90
2014,06,25,00,48,14.90
2014,06,25,00,49,14.90
2014,06,25,00,50,14.90
2014,06,25,00,51,14.90
2014,06,25,00,52,14.80
2014,06,25,00,53,14.80
2014,06,25,00,54,14.80
2014,06,25,00,55,14.80
2014,06,25,00,56,14.80
2014,06,25,00,57,14.80
2014,06,25,00,58,14.80
2014,06,25,00,59,14.80
2014,06,25,01,00,14.80
2014,06,25,01,01,14.80
2014,06,25,01,02,14.70
2014,06,25,01,03,14.70
2014,06,25,01,04,14.70
2014,06,25,01,05,14.70
2014,06,25,01,06,14.70
2014,06,25,01,07,14.70
2014,06,25,01,08,14.70
2014,06,25,01,09,14.70
2014,06,25,01,10,14.70
2014,06,25,01,11,14.70
2014,06,25,01,12,14.70
2014,06,25,01,13,14.70
2014,06,25,01,14,14.60
2014,06,25,01,15,14.60
2014,06,25,01,16,14.60
2014,06,25,01,17,14.60
2014,06,25,01,18,14.60
2014,06,25,01,19,14.60
2014,06,25,01,20,14.60
2014,06,25,01,21,14.60
2014,06,25,01,22,14.60
2014,06,25,01,23,14.60
2014,06,25,01,24,14.50
2014,06,25,01,25,14.50
2014,06,25,01,26,14.50
2014,06,25,01,27,14.50
2014,06,25,01,28,14.40
2014,06,25,01,29,14.40
2014,06,25,01,30,14.40
2014,06,25,01,31,14.40
2014,06,25,01,32,14.40
2014,06,25,01,33,14.40
2014,06,25,01,34,14.40
2014,06,25,01,35,14.40
2014,06,25,01,36,14.40
2014,06,25,01,37,14.40
2014,06,25,01,38,14.40
2014,06,25,01,39,14.40
2014,06,25,01,40,14.40
2014,06,25,01,41,14.40
2014,06,25,01,42,14.40
2014,06,25,01,43,14.40
2014,06,25,01,44,14.40
2014,06,25,01,45,14.40
2014,06,25,01,46,14.40
2014,06,25,01,47,14.40
2014,06,25,01,48,14.40
2014,06,25,01,49,14.40
2014,06,25,01,50,14.40
2014,06,25,01,51,14.40
2014,06,25,01,52,14.40
2014,06,25,01,53,14.40
2014,06,25,01,54,14.30
2014,06,25,01,55,14.30
2014,06,25,01,56,14.30
2014,06,25,01,57,14.30
2014,06,25,01,58,14.30
2014,06,25,01,59,14.30
2014,06,25,02,00,14.30
2014,06,25,02,01,14.30
2014,06,25,02,02,14.20
2014,06,25,02,03,14.20
2014,06,25,02,04,14.20
2014,06,25,02,05,14.20
2014,06,25,02,06,14.20
2014,06,25,02,07,14.20
2014,06,25,02,08,14.20
2014,06,25,02,09,14.20
2014,06,25,02,10,14.20
2014,06,25,02,11,14.20
2014,06,25,02,12,14.20
2014,06,25,02,13,14.20
2014,06,25,02,14,14.20
2014,06,25,02,15,14.20
2014,06,25,02,16,14.20
2014,06,25,02,17,14.10
2014,06,25,02,18,14.10
2014,06,25,02,19,14.10
2014,06,25,02,20,14.10
2014,06,25,02,21,14.10
2014,06,25,02,22,14.10
2014,06,25,02,23,14.10
2014,06,25,02,24,14.10
2014,06,25,02,25,14.10
2014,06,25,02,26,14.10
2014,06,25,02,27,14.10
2014,06,25,02,28,14.10
2014,06,25,02,29,14.10
2014,06,25,02,30,14.10
2014,06,25,02,31,14.10
2014,06,25,02,32,14.00
2014,06,25,02,33,14.00
2014,06,25,02,34,14.00
2014,06,25,02,35,14.00
2014,06,25,02,36,14.00
2014,06,25,02,37,14.00
2014,06,25,02,38,13.90
2014,06,25,02,39,13.90
2014,06,25,02,40,13.90
2014,06,25,02,41,13.90
2014,06,25,02,42,13.90
2014,06,25,02,43,13.90
2014,06,25,02,44,13.90
2014,06,25,02,45,13.90
2014,06,25,02,46,13.90
2014,06,25,02,47,13.90
2014,06,25,02,48,13.90
2014,06,25,02,49,13.80
2014,06,25,02,50,13.80
2014,06,25,02,51,13.80
2014,06,25,02,52,13.80
2014,06,25,02,53,13.80
2014,06,25,02,54,13.80
2014,06,25,02,55,13.80
2014,06,25,02,56,13.80
2014,06,25,02,57,13.80
2014,06,25,02,58,13.80
2014,06,25,02,59,13.80
2014,06,25,03,00,13.80
2014,06,25,03,01,13.80
2014,06,25,03,02,13.80
2014,06,25,03,03,13.80
2014,06,25,03,04,13.80
2014,06,25,03,05,13.80
2014,06,25,03,06,13.80
2014,06,25,03,07,13.80
2014,06,25,03,08,13.80
2014,06,25,03,09,13.80
2014,06,25,03,10,13.70
2014,06,25,03,11,13.70
2014,06,25,03,12,13.70
2014,06,25,03,13,13.70
2014,06,25,03,14,13.70
2014,06,25,03,15,13.70
2014,06,25,03,16,13.70
2014,06,25,03,17,13.70
2014,06,25,03,18,13.70
2014,06,25,03,19,13.70
2014,06,25,03,20,13.60
2014,06,25,03,21,13.60
2014,06,25,03,22,13.60
2014,06,25,03,23,13.60
2014,06,25,03,24,13.60
2014,06,25,03,25,13.60
2014,06,25,03,26,13.60
2014,06,25,03,27,13.60
2014,06,25,03,28,13.60
2014,06,25,03,29,13.50
2014,06,25,03,30,13.50
2014,06,25,03,31,13.50
2014,06,25,03,32,13.50
2014,06,25,03,33,13.40
2014,06,25,03,34,13.40
2014,06,25,03,35,13.40
2014,06,25,03,36,13.40
2014,06,25,03,37,13.40
2014,06,25,03,38,13.40
2014,06,25,03,39,13.30
2014,06,25,03,40,13.30
2014,06,25,03,41,13.30
2014,06,25,03,42,13.30
2014,06,25,03,43,13.30
2014,06,25,03,44,13.30
2014,06,25,03,45,13.30
2014,06,25,03,46,13.30
2014,06,25,03,47,13.30
2014,06,25,03,48,13.30
2014,06,25,03,49,13.30
2014,06,25,03,50,13.30
2014,06,25,03,51,13.30
2014,06,25,03,52,13.20
2014,06,25,03,53,13.20
2014,06,25,03,54,13.20
2014,06,25,03,55,13.20
2014,06,25,03,56,13.20
2014,06,25,03,57,13.20
2014,06,25,03,58,13.30
2014,06,25,03,59,13.30
2014,06,25,04,00,13.20
2014,06,25,04,01,13.20
2014,06,25,04,02,13.20
2014,06,25,04,03,13.20
2014,06,25,04,04,13.20
2014,06,25,04,05,13.20
2014,06,25,04,06,13.20
2014,06,25,04,07,13.30
2014,06,25,04,08,13.20
2014,06,25,04,09,13.20
2014,06,25,04,10,13.20
2014,06,25,04,11,13.20
2014,06,25,04,12,13.20
2014,06,25,04,13,13.20
2014,06,25,04,14,13.20
2014,06,25,04,15,13.20
2014,06,25,04,16,13.20
2014,06,25,04,17,13.20
2014,06,25,04,18,13.20
2014,06,25,04,19,13.20
2014,06,25,04,20,13.20
2014,06,25,04,21,13.20
2014,06,25,04,22,13.20
2014,06,25,04,23,13.20
2014,06,25,04,24,13.20
2014,06,25,04,25,13.20
2014,06,25,04,26,13.10
2014,06,25,04,27,13.10
2014,06,25,04,28,13.10
2014,06,25,04,29,13.10
2014,06,25,04,30,13.10
2014,06,25,04,31,13.10
2014,06,25,04,32,13.10
2014,06,25,04,33,13.00
2014,06,25,04,34,13.00
2014,06,25,04,35,13.00
2014,06,25,04,36,13.00
2014,06,25,04,37,12.90
2014,06,25,04,38,12.90
2014,06,25,04,39,12.90
2014,06,25,04,40,12.90
2014,06,25,04,41,12.80
2014,06,25,04,42,12.80
2014,06,25,04,43,12.80
2014,06,25,04,44,12.80
2014,06,25,04,45,12.80
2014,06,25,04,46,12.70
2014,06,25,04,47,12.70
2014,06,25,04,48,12.70
2014,06,25,04,49,12.70
2014,06,25,04,50,12.60
2014,06,25,04,51,12.60
2014,06,25,04,52,12.60
2014,06,25,04,53,12.50
2014,06,25,04,54,12.50
2014,06,25,04,55,12.40
2014,06,25,04,56,12.40
2014,06,25,04,57,12.40
2014,06,25,04,58,12.40
2014,06,25,04,59,12.30
2014,06,25,05,00,12.30
2014,06,25,05,01,12.30
2014,06,25,05,02,12.30
2014,06,25,05,03,12.20
2014,06,25,05,04,12.20
2014,06,25,05,05,12.20
2014,06,25,05,06,12.20
2014,06,25,05,07,12.20
2014,06,25,05,08,12.20
2014,06,25,05,09,12.10
2014,06,25,05,10,12.10
2014,06,25,05,11,12.10
2014,06,25,05,12,12.10
2014,06,25,05,13,12.10
2014,06,25,05,14,12.10
2014,06,25,05,15,12.10
2014,06,25,05,16,12.10
2014,06,25,05,17,12.10
2014,06,25,05,18,12.10
2014,06,25,05,19,12.10
2014,06,25,05,20,12.10
2014,06,25,05,21,12.20
2014,06,25,05,22,12.20
2014,06,25,05,23,12.20
2014,06,25,05,24,12.20
2014,06,25,05,25,12.20
2014,06,25,05,26,12.20
2014,06,25,05,27,12.20
2014,06,25,05,28,12.20
2014,06,25,05,29,12.20
2014,06,25,05,30,12.20
2014,06,25,05,31,12.20
2014,06,25,05,32,12.20
2014,06,25,05,33,12.20
2014,06,25,05,34,12.20
2014,06,25,05,35,12.20
2014,06,25,05,36,12.20
2014,06,25,05,37,12.20
2014,06,25,05,38,12.20
2014,06,25,05,39,12.20
2014,06,25,05,40,12.20
2014,06,25,05,41,12.20
2014,06,25,05,42,12.20
2014,06,25,05,43,12.20
2014,06,25,05,44,12.20
2014,06,25,05,45,12.20
2014,06,25,05,46,12.20
2014,06,25,05,47,12.20
2014,06,25,05,48,12.20
2014,06,25,05,49,12.20
2014,06,25,05,50,12.20
2014,06,25,05,51,12.20
2014,06,25,05,52,12.10
2014,06,25,05,53,12.10
2014,06,25,05,54,12.10
2014,06,25,05,55,12.10
2014,06,25,05,56,12.10
2014,06,25,05,57,12.10
2014,06,25,05,58,12.10
2014,06,25,05,59,12.10
2014,06,25,06,00,12.10
2014,06,25,06,01,12.10
2014,06,25,06,02,12.10
2014,06,25,06,03,12.10
2014,06,25,06,04,12.00
2014,06,25,06,05,12.00
2014,06,25,06,06,12.00
2014,06,25,06,07,12.00
2014,06,25,06,08,12.00
2014,06,25,06,09,12.00
2014,06,25,06,10,12.00
2014,06,25,06,11,11.90
2014,06,25,06,12,11.90
2014,06,25,06,13,11.90
2014,06,25,06,14,11.90
2014,06,25,06,15,11.90
2014,06,25,06,16,11.90
2014,06,25,06,17,11.90
2014,06,25,06,18,11.90
2014,06,25,06,19,11.90
2014,06,25,06,20,11.90
2014,06,25,06,21,11.90
2014,06,25,06,22,11.90
2014,06,25,06,23,11.90
2014,06,25,06,24,11.90
2014,06,25,06,25,11.90
2014,06,25,06,26,11.90
2014,06,25,06,27,11.90
2014,06,25,06,28,11.90
2014,06,25,06,29,11.90
2014,06,25,06,30,11.90
2014,06,25,06,31,11.90
2014,06,25,06,32,11.90
2014,06,25,06,33,11.90
2014,06,25,06,34,11.90
2014,06,25,06,35,11.90
2014,06,25,06,36,11.90
2014,06,25,06,37,11.90
2014,06,25,06,38,11.90
2014,06,25,06,39,11.90
2014,06,25,06,40,11.90
2014,06,25,06,41,11.90
2014,06,25,06,42,11.90
2014,06,25,06,43,11.90
2014,06,25,06,44,11.90
2014,06,25,06,45,11.90
2014,06,25,06,46,12.00
2014,06,25,06,47,12.00
2014,06,25,06,48,12.00
2014,06,25,06,49,12.00
2014,06,25,06,50,12.00
2014,06,25,06,51,12.10
2014,06,25,06,52,12.10
2014,06,25,06,53,12.10
2014,06,25,06,54,12.20
2014,06,25,06,55,12.20
2014,06,25,06,56,12.20
2014,06,25,06,57,12.30
2014,06,25,06,58,12.30
2014,06,25,06,59,12.40
2014,06,25,07,00,12.40
2014,06,25,07,01,12.50
2014,06,25,07,02,12.60
2014,06,25,07,03,12.70
2014,06,25,07,04,12.80
2014,06,25,07,05,12.80
2014,06,25,07,06,12.90
2014,06,25,07,07,13.00
2014,06,25,07,08,13.10
2014,06,25,07,09,13.20
2014,06,25,07,10,13.20
2014,06,25,07,11,13.30
2014,06,25,07,12,13.30
2014,06,25,07,13,13.40
2014,06,25,07,14,13.50
2014,06,25,07,15,13.50
2014,06,25,07,16,13.60
2014,06,25,07,17,13.60
2014,06,25,07,18,13.60
2014,06,25,07,19,13.60
2014,06,25,07,20,13.50
2014,06,25,07,21,13.50
2014,06,25,07,22,13.50
2014,06,25,07,23,13.50
2014,06,25,07,24,13.50
2014,06,25,07,25,13.50
2014,06,25,07,26,13.50
2014,06,25,07,27,13.50
2014,06,25,07,28,13.50
2014,06,25,07,29,13.50
2014,06,25,07,30,13.50
2014,06,25,07,31,13.50
2014,06,25,07,32,13.50
2014,06,25,07,33,13.50
2014,06,25,07,34,13.50
2014,06,25,07,35,13.50
2014,06,25,07,36,13.50
2014,06,25,07,37,13.60
2014,06,25,07,38,13.60
2014,06,25,07,39,13.60
2014,06,25,07,40,13.60
2014,06,25,07,41,13.60
2014,06,25,07,42,13.60
2014,06,25,07,43,13.60
2014,06,25,07,44,13.70
2014,06,25,07,45,13.70
2014,06,25,07,46,13.70
2014,06,25,07,47,13.70
2014,06,25,07,48,13.70
2014,06,25,07,49,13.70
2014,06,25,07,50,13.80
2014,06,25,07,51,13.80
2014,06,25,07,52,13.80
2014,06,25,07,53,13.90
2014,06,25,07,54,13.90
2014,06,25,07,55,13.90
2014,06,25,07,56,13.90
2014,06,25,07,57,14.00
2014,06,25,07,58,14.00
2014,06,25,07,59,14.10
2014,06,25,08,00,14.10
2014,06,25,08,01,14.10
2014,06,25,08,02,14.10
2014,06,25,08,03,14.10
2014,06,25,08,04,14.10
2014,06,25,08,05,14.10
2014,06,25,08,06,14.10
2014,06,25,08,07,14.10
2014,06,25,08,08,14.10
2014,06,25,08,09,14.10
2014,06,25,08,10,14.10
2014,06,25,08,11,14.10
2014,06,25,08,12,14.10
2014,06,25,08,13,14.10
2014,06,25,08,14,14.10
2014,06,25,08,15,14.20
2014,06,25,08,16,14.20
2014,06,25,08,17,14.20
2014,06,25,08,18,14.30
2014,06,25,08,19,14.30
2014,06,25,08,20,14.30
2014,06,25,08,21,14.30
2014,06,25,08,22,14.30
2014,06,25,08,23,14.40
2014,06,25,08,24,14.50
2014,06,25,08,25,14.50
2014,06,25,08,26,14.60
2014,06,25,08,27,14.60
2014,06,25,08,28,14.70
2014,06,25,08,29,14.70
2014,06,25,08,30,14.80
2014,06,25,08,31,14.80
2014,06,25,08,32,14.90
2014,06,25,08,33,14.90
2014,06,25,08,34,14.90
2014,06,25,08,35,14.90
2014,06,25,08,36,14.90
2014,06,25,08,37,15.00
2014,06,25,08,38,15.00
2014,06,25,08,39,15.00
2014,06,25,08,40,15.00
2014,06,25,08,41,15.00
2014,06,25,08,42,15.10
2014,06,25,08,43,15.10
2014,06,25,08,44,15.20
2014,06,25,08,45,15.20
2014,06,25,08,46,15.30
2014,06,25,08,47,15.30
2014,06,25,08,48,15.40
2014,06,25,08,49,15.50
2014,06,25,08,50,15.60
2014,06,25,08,51,15.60
2014,06,25,08,52,15.60
2014,06,25,08,53,15.60
2014,06,25,08,54,15.60
2014,06,25,08,55,15.60
2014,06,25,08,56,15.60
2014,06,25,08,57,15.60
2014,06,25,08,58,15.50
2014,06,25,08,59,15.40
2014,06,25,09,00,15.40
2014,06,25,09,01,15.40
2014,06,25,09,02,15.40
2014,06,25,09,03,15.50
2014,06,25,09,04,15.50
2014,06,25,09,05,15.60
2014,06,25,09,06,15.60
2014,06,25,09,07,15.60
2014,06,25,09,08,15.50
2014,06,25,09,09,15.50
2014,06,25,09,10,15.40
2014,06,25,09,11,15.40
2014,06,25,09,12,15.40
2014,06,25,09,13,15.30
2014,06,25,09,14,15.40
2014,06,25,09,15,15.40
2014,06,25,09,16,15.50
2014,06,25,09,17,15.50
2014,06,25,09,18,15.60
2014,06,25,09,19,15.70
2014,06,25,09,20,15.60
2014,06,25,09,21,15.50
2014,06,25,09,22,15.50
2014,06,25,09,23,15.50
2014,06,25,09,24,15.50
2014,06,25,09,25,15.50
2014,06,25,09,26,15.40
2014,06,25,09,27,15.40
2014,06,25,09,28,15.40
2014,06,25,09,29,15.40
2014,06,25,09,30,15.30
2014,06,25,09,31,15.30
2014,06,25,09,32,15.30
2014,06,25,09,33,15.20
2014,06,25,09,34,15.30
2014,06,25,09,35,15.40
2014,06,25,09,36,15.40
2014,06,25,09,37,15.40
2014,06,25,09,38,15.40
2014,06,25,09,39,15.40
2014,06,25,09,40,15.40
2014,06,25,09,41,15.50
2014,06,25,09,42,15.50
2014,06,25,09,43,15.50
2014,06,25,09,44,15.50
2014,06,25,09,45,15.40
2014,06,25,09,46,15.40
2014,06,25,09,47,15.40
2014,06,25,09,48,15.40
2014,06,25,09,49,15.40
2014,06,25,09,50,15.40
2014,06,25,09,51,15.40
2014,06,25,09,52,15.40
2014,06,25,09,53,15.40
2014,06,25,09,54,15.30
2014,06,25,09,55,15.30
2014,06,25,09,56,15.30
2014,06,25,09,57,15.30
2014,06,25,09,58,15.30
2014,06,25,09,59,15.40
2014,06,25,10,00,15.40
2014,06,25,10,01,15.50
2014,06,25,10,02,15.50
2014,06,25,10,03,15.60
2014,06,25,10,04,15.60
2014,06,25,10,05,15.50
2014,06,25,10,06,15.50
2014,06,25,10,07,15.40
2014,06,25,10,08,15.40
2014,06,25,10,09,15.40
2014,06,25,10,10,15.50
2014,06,25,10,11,15.50
2014,06,25,10,12,15.60
2014,06,25,10,13,15.70
2014,06,25,10,14,15.80
2014,06,25,10,15,15.80
2014,06,25,10,16,15.90
2014,06,25,10,17,15.90
2014,06,25,10,18,15.90
2014,06,25,10,19,16.00
2014,06,25,10,20,16.10
2014,06,25,10,21,16.20
2014,06,25,10,22,16.20
2014,06,25,10,23,16.30
2014,06,25,10,24,16.30
2014,06,25,10,25,16.30
2014,06,25,10,26,16.30
2014,06,25,10,27,16.40
2014,06,25,10,28,16.40
2014,06,25,10,29,16.40
2014,06,25,10,30,16.50
2014,06,25,10,31,16.50
2014,06,25,10,32,16.60
2014,06,25,10,33,16.60
2014,06,25,10,34,16.50
2014,06,25,10,35,16.50
2014,06,25,10,36,16.50
2014,06,25,10,37,16.50
2014,06,25,10,38,16.50
2014,06,25,10,39,16.50
2014,06,25,10,40,16.50
2014,06,25,10,41,16.50
2014,06,25,10,42,16.50
2014,06,25,10,43,16.50
2014,06,25,10,44,16.50
2014,06,25,10,45,16.50
2014,06,25,10,46,16.50
2014,06,25,10,47,16.50
2014,06,25,10,48,16.50
2014,06,25,10,49,16.50
2014,06,25,10,50,16.50
2014,06,25,10,51,16.60
2014,06,25,10,52,16.60
2014,06,25,10,53,16.60
2014,06,25,10,54,16.70
2014,06,25,10,55,16.80
2014,06,25,10,56,16.90
2014,06,25,10,57,17.00
2014,06,25,10,58,17.10
2014,06,25,10,59,17.20
2014,06,25,11,00,17.20
2014,06,25,11,01,17.20
2014,06,25,11,02,17.20
2014,06,25,11,03,17.20
2014,06,25,11,04,17.20
2014,06,25,11,05,17.20
2014,06,25,11,06,17.30
2014,06,25,11,07,17.30
2014,06,25,11,08,17.30
2014,06,25,11,09,17.40
2014,06,25,11,10,17.40
2014,06,25,11,11,17.40
2014,06,25,11,12,17.40
2014,06,25,11,13,17.50
2014,06,25,11,14,17.60
2014,06,25,11,15,17.60
2014,06,25,11,16,17.70
2014,06,25,11,17,17.80
2014,06,25,11,18,17.90
2014,06,25,11,19,17.90
2014,06,25,11,20,17.90
2014,06,25,11,21,17.90
2014,06,25,11,22,17.90
2014,06,25,11,23,18.00
2014,06,25,11,24,17.90
2014,06,25,11,25,17.90
2014,06,25,11,26,17.80
2014,06,25,11,27,17.70
2014,06,25,11,28,17.60
2014,06,25,11,29,17.60
2014,06,25,11,30,17.60
2014,06,25,11,31,17.60
2014,06,25,11,32,17.60
2014,06,25,11,33,17.70
2014,06,25,11,34,17.80
2014,06,25,11,35,17.90
2014,06,25,11,36,17.90
2014,06,25,11,37,18.00
2014,06,25,11,38,18.10
2014,06,25,11,39,18.20
2014,06,25,11,40,18.10
2014,06,25,11,41,18.00
2014,06,25,11,42,17.90
2014,06,25,11,43,17.90
2014,06,25,11,44,17.80
2014,06,25,11,45,17.70
2014,06,25,11,46,17.70
2014,06,25,11,47,17.80
2014,06,25,11,48,18.00
2014,06,25,11,49,18.10
2014,06,25,11,50,18.20
2014,06,25,11,51,18.40
2014,06,25,11,52,18.50
2014,06,25,11,53,18.60
2014,06,25,11,54,18.60
2014,06,25,11,55,18.70
2014,06,25,11,56,18.80
2014,06,25,11,57,18.90
2014,06,25,11,58,19.10
2014,06,25,11,59,19.20
2014,06,25,12,00,19.20
2014,06,25,12,01,19.20
2014,06,25,12,02,19.20
2014,06,25,12,03,19.20
2014,06,25,12,04,19.20
2014,06,25,12,05,19.30
2014,06,25,12,06,19.40
2014,06,25,12,07,19.50
2014,06,25,12,08,19.60
2014,06,25,12,09,19.60
2014,06,25,12,10,19.70
2014,06,25,12,11,19.80
2014,06,25,12,12,19.80
2014,06,25,12,13,19.80
2014,06,25,12,14,19.90
2014,06,25,12,15,19.90
2014,06,25,12,16,19.90
2014,06,25,12,17,19.90
2014,06,25,12,18,19.80
2014,06,25,12,19,19.90
2014,06,25,12,20,19.90
2014,06,25,12,21,19.90
2014,06,25,12,22,19.90
2014,06,25,12,23,19.90
2014,06,25,12,24,19.90
2014,06,25,12,25,19.90
2014,06,25,12,26,19.90
2014,06,25,12,27,19.90
2014,06,25,12,28,19.90
2014,06,25,12,29,19.90
2014,06,25,12,30,20.00
2014,06,25,12,31,20.10
2014,06,25,12,32,20.10
2014,06,25,12,33,20.20
2014,06,25,12,34,20.20
2014,06,25,12,35,20.20
2014,06,25,12,36,20.30
2014,06,25,12,37,20.30
2014,06,25,12,38,20.30
2014,06,25,12,39,20.30
2014,06,25,12,40,20.40
2014,06,25,12,41,20.50
2014,06,25,12,42,20.50
2014,06,25,12,43,20.60
2014,06,25,12,44,20.60
2014,06,25,12,45,20.60
2014,06,25,12,46,20.70
2014,06,25,12,47,20.80
2014,06,25,12,48,20.80
2014,06,25,12,49,20.80
2014,06,25,12,50,20.90
2014,06,25,12,51,21.00
2014,06,25,12,52,21.00
2014,06,25,12,53,21.00
2014,06,25,12,54,21.10
2014,06,25,12,55,21.10
2014,06,25,12,56,21.20
2014,06,25,12,57,21.20
2014,06,25,12,58,21.20
2014,06,25,12,59,21.20
2014,06,25,13,00,21.20
2014,06,25,13,01,21.20
2014,06,25,13,02,21.20
2014,06,25,13,03,21.10
2014,06,25,13,04,21.10
2014,06,25,13,05,21.10
2014,06,25,13,06,21.20
2014,06,25,13,07,21.20
2014,06,25,13,08,21.30
2014,06,25,13,09,21.30
2014,06,25,13,10,21.40
2014,06,25,13,11,21.50
2014,06,25,13,12,21.60
2014,06,25,13,13,21.60
2014,06,25,13,14,21.70
2014,06,25,13,15,21.70
2014,06,25,13,16,21.70
2014,06,25,13,17,21.70
2014,06,25,13,18,21.70
2014,06,25,13,19,21.50
2014,06,25,13,20,21.40
2014,06,25,13,21,21.20
2014,06,25,13,22,21.20
2014,06,25,13,23,21.20
2014,06,25,13,24,21.30
2014,06,25,13,25,21.40
2014,06,25,13,26,21.50
2014,06,25,13,27,21.60
2014,06,25,13,28,21.60
2014,06,25,13,29,21.60
2014,06,25,13,30,21.60
2014,06,25,13,31,21.70
2014,06,25,13,32,21.70
2014,06,25,13,33,21.70
2014,06,25,13,34,21.60
2014,06,25,13,35,21.40
2014,06,25,13,36,21.40
2014,06,25,13,37,21.30
2014,06,25,13,38,21.30
2014,06,25,13,39,21.30
2014,06,25,13,40,21.20
2014,06,25,13,41,21.10
2014,06,25,13,42,21.10
2014,06,25,13,43,21.10
2014,06,25,13,44,21.10
2014,06,25,13,45,21.10
2014,06,25,13,46,21.20
2014,06,25,13,47,21.30
2014,06,25,13,48,21.30
2014,06,25,13,49,21.40
2014,06,25,13,50,21.40
2014,06,25,13,51,21.40
2014,06,25,13,52,21.30
2014,06,25,13,53,21.30
2014,06,25,13,54,21.30
2014,06,25,13,55,21.40
2014,06,25,13,56,21.50
2014,06,25,13,57,21.70
2014,06,25,13,58,21.80
2014,06,25,13,59,21.90
2014,06,25,14,00,21.90
2014,06,25,14,01,21.90
2014,06,25,14,02,21.90
2014,06,25,14,03,21.90
2014,06,25,14,04,21.90
2014,06,25,14,05,21.90
2014,06,25,14,06,22.00
2014,06,25,14,07,22.00
2014,06,25,14,08,22.00
2014,06,25,14,09,22.00
2014,06,25,14,10,22.00
2014,06,25,14,11,21.90
2014,06,25,14,12,21.90
2014,06,25,14,13,21.90
2014,06,25,14,14,22.00
2014,06,25,14,15,22.10
2014,06,25,14,16,22.20
2014,06,25,14,17,22.20
2014,06,25,14,18,22.30
2014,06,25,14,19,22.30
2014,06,25,14,20,22.40
2014,06,25,14,21,22.30
2014,06,25,14,22,22.30
2014,06,25,14,23,22.20
2014,06,25,14,24,22.10
2014,06,25,14,25,22.00
2014,06,25,14,26,21.90
2014,06,25,14,27,21.80
2014,06,25,14,28,21.80
2014,06,25,14,29,21.70
2014,06,25,14,30,21.70
2014,06,25,14,31,21.70
2014,06,25,14,32,21.60
2014,06,25,14,33,21.50
2014,06,25,14,34,21.40
2014,06,25,14,35,21.40
2014,06,25,14,36,21.50
2014,06,25,14,37,21.50
2014,06,25,14,38,21.60
2014,06,25,14,39,21.70
2014,06,25,14,40,21.80
2014,06,25,14,41,21.80
2014,06,25,14,42,21.80
2014,06,25,14,43,21.80
2014,06,25,14,44,21.90
2014,06,25,14,45,21.90
2014,06,25,14,46,21.80
2014,06,25,14,47,21.80
2014,06,25,14,48,21.80
2014,06,25,14,49,21.70
2014,06,25,14,50,21.80
2014,06,25,14,51,21.80
2014,06,25,14,52,21.90
2014,06,25,14,53,21.90
2014,06,25,14,54,22.00
2014,06,25,14,55,22.00
2014,06,25,14,56,22.10
2014,06,25,14,57,22.10
2014,06,25,14,58,22.10
2014,06,25,14,59,22.10
2014,06,25,15,00,22.00
2014,06,25,15,01,22.00
2014,06,25,15,02,22.00
2014,06,25,15,03,22.10
2014,06,25,15,04,22.10
2014,06,25,15,05,22.20
2014,06,25,15,06,22.20
2014,06,25,15,07,22.30
2014,06,25,15,08,22.30
2014,06,25,15,09,22.30
2014,06,25,15,10,22.30
2014,06,25,15,11,22.30
2014,06,25,15,12,22.40
2014,06,25,15,13,22.50
2014,06,25,15,14,22.50
2014,06,25,15,15,22.60
2014,06,25,15,16,22.60
2014,06,25,15,17,22.70
2014,06,25,15,18,22.80
2014,06,25,15,19,22.80
2014,06,25,15,20,22.80
2014,06,25,15,21,22.80
2014,06,25,15,22,22.80
2014,06,25,15,23,22.80
2014,06,25,15,24,22.80
2014,06,25,15,25,22.80
2014,06,25,15,26,22.70
2014,06,25,15,27,22.70
2014,06,25,15,28,22.60
2014,06,25,15,29,22.60
2014,06,25,15,30,22.70
2014,06,25,15,31,22.70
2014,06,25,15,32,22.80
2014,06,25,15,33,22.80
2014,06,25,15,34,22.80
2014,06,25,15,35,22.90
2014,06,25,15,36,22.90
2014,06,25,15,37,22.90
2014,06,25,15,38,22.80
2014,06,25,15,39,22.70
2014,06,25,15,40,22.70
2014,06,25,15,41,22.70
2014,06,25,15,42,22.70
2014,06,25,15,43,22.80
2014,06,25,15,44,22.80
2014,06,25,15,45,22.90
2014,06,25,15,46,23.00
2014,06,25,15,47,23.00
2014,06,25,15,48,23.10
2014,06,25,15,49,23.20
2014,06,25,15,50,23.20
2014,06,25,15,51,23.20
2014,06,25,15,52,23.20
2014,06,25,15,53,23.30
2014,06,25,15,54,23.30
2014,06,25,15,55,23.30
2014,06,25,15,56,23.40
2014,06,25,15,57,23.40
2014,06,25,15,58,23.50
2014,06,25,15,59,23.60
2014,06,25,16,00,23.60
2014,06,25,16,01,23.50
2014,06,25,16,02,23.40
2014,06,25,16,03,23.40
2014,06,25,16,04,23.40
2014,06,25,16,05,23.40
2014,06,25,16,06,23.40
2014,06,25,16,07,23.50
2014,06,25,16,08,23.50
2014,06,25,16,09,23.60
2014,06,25,16,10,23.60
2014,06,25,16,11,23.70
2014,06,25,16,12,23.70
2014,06,25,16,13,23.70
2014,06,25,16,14,23.70
2014,06,25,16,15,23.70
2014,06,25,16,16,23.70
2014,06,25,16,17,23.70
2014,06,25,16,18,23.70
2014,06,25,16,19,23.70
2014,06,25,16,20,23.80
2014,06,25,16,21,23.80
2014,06,25,16,22,23.90
2014,06,25,16,23,23.90
2014,06,25,16,24,23.90
2014,06,25,16,25,23.90
2014,06,25,16,26,23.90
2014,06,25,16,27,23.80
2014,06,25,16,28,23.80
2014,06,25,16,29,23.80
2014,06,25,16,30,23.80
2014,06,25,16,31,23.70
2014,06,25,16,32,23.70
2014,06,25,16,33,23.70
2014,06,25,16,34,23.60
2014,06,25,16,35,23.60
2014,06,25,16,36,23.60
2014,06,25,16,37,23.50
2014,06,25,16,38,23.50
2014,06,25,16,39,23.40
2014,06,25,16,40,23.40
2014,06,25,16,41,23.30
2014,06,25,16,42,23.20
2014,06,25,16,43,23.20
2014,06,25,16,44,23.10
2014,06,25,16,45,23.10
2014,06,25,16,46,23.00
2014,06,25,16,47,22.90
2014,06,25,16,48,22.90
2014,06,25,16,49,22.80
2014,06,25,16,50,22.80
2014,06,25,16,51,22.70
2014,06,25,16,52,22.70
2014,06,25,16,53,22.70
2014,06,25,16,54,22.70
2014,06,25,16,55,22.70
2014,06,25,16,56,22.70
2014,06,25,16,57,22.70
2014,06,25,16,58,22.80
2014,06,25,16,59,22.80
2014,06,25,17,00,22.80
2014,06,25,17,01,22.80
2014,06,25,17,02,22.80
2014,06,25,17,03,22.80
2014,06,25,17,04,22.80
2014,06,25,17,05,22.90
2014,06,25,17,06,22.90
2014,06,25,17,07,22.90
2014,06,25,17,08,22.90
2014,06,25,17,09,22.90
2014,06,25,17,10,22.90
2014,06,25,17,11,23.00
2014,06,25,17,12,23.00
2014,06,25,17,13,23.10
2014,06,25,17,14,23.10
2014,06,25,17,15,23.10
2014,06,25,17,16,23.20
2014,06,25,17,17,23.20
2014,06,25,17,18,23.30
2014,06,25,17,19,23.30